Weather History for KPHD - November, 2012

Change the Weather History Date:

Wednesday, November 28, 2012

  Actual Average Record
Temperature  
Mean Temperature 32 °F 38 °F  
Max Temperature 41 °F 47 °F 74 °F (1990)
Min Temperature 22 °F 30 °F 10 °F (2013)
Degree Days  
Heating Degree Days 33 26  
Month to date heating degree days 708 605  
Since 1 July heating degree days 1220 1104  
Cooling Degree Days 0 0  
Month to date cooling degree days 0 0  
Year to date cooling degree days 981 697  
Moisture  
Dew Point 20 °F    
Average Humidity 64    
Maximum Humidity 88    
Minimum Humidity 40    
Precipitation  
Precipitation T in 0.12 in 1.04 in (1983)
Month to date precipitation 0.61 3.03  
Year to date precipitation 28.32 35.99  
Sea Level Pressure  
Sea Level Pressure 30.36 in    
Wind  
Wind Speed 3 mph (WSW)    
Max Wind Speed 13 mph    
Max Gust Speed 21 mph    
Visibility 9 miles    
Events      
T = Trace of Precipitation, MM = Missing Value Source: NWS Daily Summary

Daily Weather History Graph

Daily Weather History Graph

Search for Another Location

Airport or City:

Trip Planner

Search our weather history database for the weather conditions in past years. The results will help you decide how hot, cold, wet, or windy it might be!

Date:

Astronomy

Nov. 28, 2012 Rise Set
Actual Time 7:27 AM EST 5:00 PM EST
Civil Twilight 6:56 AM EST 5:30 PM EST
Nautical Twilight 6:23 AM EST 6:04 PM EST
Astronomical Twilight 5:50 AM EST 6:37 PM EST
Moon 5:14 PM EST (11/28) 7:23 AM EST (11/28)
Length of Visible Light 10h 33m
Length of Day
9h 33m
Full, 100% of the Moon is Illuminated
Nov 28
Full
Dec 6
Last Quarter
Dec 13
New
Dec 20
First Quarter
Dec 28
Full

Hourly Weather History & Observations

Time (EST) Temp. Windchill Dew Point Humidity Pressure Visibility Wind Dir Wind Speed Gust Speed Precip Events Conditions
12:53 AM 27.0 °F - 23.0 °F 85% 30.31 in 7.0 mi Calm Calm - N/A   Mostly Cloudy
1:53 AM 27.0 °F - 23.0 °F 85% 30.31 in 6.0 mi Calm Calm - N/A   Overcast
2:53 AM 28.0 °F - 24.1 °F 85% 30.32 in 6.0 mi Calm Calm - N/A   Overcast
3:53 AM 26.1 °F - 21.9 °F 84% 30.31 in 6.0 mi Calm Calm - N/A   Overcast
4:53 AM 24.1 °F - 19.9 °F 84% 30.32 in 6.0 mi Calm Calm - N/A   Clear
5:53 AM 24.1 °F - 21.0 °F 88% 30.33 in 6.0 mi Calm Calm - N/A   Mostly Cloudy
6:53 AM 24.1 °F - 19.9 °F 84% 30.35 in 6.0 mi Calm Calm - N/A   Overcast
7:53 AM 27.0 °F 20.5 °F 19.9 °F 75% 30.36 in 8.0 mi SW 5.8 mph - N/A   Overcast
8:53 AM 28.9 °F - 21.0 °F 72% 30.37 in 8.0 mi Calm Calm - N/A   Overcast
9:53 AM 30.9 °F 24.3 °F 21.9 °F 69% 30.38 in 8.0 mi SW 6.9 mph - N/A   Overcast
10:53 AM 34.0 °F 31.0 °F 21.0 °F 59% 30.38 in 9.0 mi SW 3.5 mph - 0.00 in   Clear
11:53 AM 37.0 °F 31.6 °F 21.9 °F 54% 30.37 in 10.0 mi WSW 6.9 mph - N/A   Clear
12:53 PM 37.9 °F 32.1 °F 19.0 °F 47% 30.36 in 10.0 mi WSW 8.1 mph - N/A   Clear
1:53 PM 39.9 °F 33.9 °F 19.0 °F 43% 30.35 in 10.0 mi WNW 9.2 mph - N/A   Clear
2:53 PM 39.9 °F 33.9 °F 18.0 °F 41% 30.34 in 10.0 mi West 9.2 mph - N/A   Clear
3:53 PM 39.9 °F 34.5 °F 19.9 °F 45% 30.34 in 10.0 mi WNW 8.1 mph - N/A   Clear
4:53 PM 37.9 °F - 21.0 °F 51% 30.35 in 10.0 mi Calm Calm - N/A   Clear
5:53 PM 34.0 °F - 19.9 °F 56% 30.37 in 10.0 mi Calm Calm - N/A   Clear
6:53 PM 28.9 °F - 19.9 °F 69% 30.39 in 10.0 mi Calm Calm - N/A   Clear
7:53 PM 28.0 °F - 19.9 °F 72% 30.40 in 10.0 mi Calm Calm - N/A   Clear
8:53 PM 26.1 °F - 19.0 °F 75% 30.41 in 10.0 mi Calm Calm - N/A   Clear
9:53 PM 25.0 °F - 19.0 °F 78% 30.41 in 10.0 mi Calm Calm - N/A   Clear
10:53 PM 23.0 °F - 18.0 °F 81% 30.40 in 10.0 mi Calm Calm - N/A   Clear
11:53 PM 23.0 °F 18.4 °F 18.0 °F 81% 30.41 in 10.0 mi ESE 3.5 mph - N/A   Clear